Milwaukee, WI

8:48 AM CDT on June 26, 2017 (GMT -0500)
Gen Mitchell International

Weather History for KMKE - November, 2012

Change the Weather History Date:

Monday, November 19, 2012

  Actual Average Record
Temperature  
Mean Temperature 45 °F 37 °F  
Max Temperature 53 °F 44 °F 72 °F (1953)
Min Temperature 36 °F 31 °F 6 °F (1894)
Degree Days  
Heating Degree Days 20 28  
Month to date heating degree days 463 444  
Since 1 July heating degree days 1065 1029  
Cooling Degree Days 0 0  
Month to date cooling degree days 0 0  
Year to date cooling degree days 1041 641  
Moisture  
Dew Point 39 °F    
Average Humidity 70    
Maximum Humidity 86    
Minimum Humidity 54    
Precipitation  
Precipitation 0.08 in 0.09 in 1.76 in (1934)
Month to date precipitation 0.35 1.73  
Year to date precipitation 25.42 31.74  
Snow  
Snow 0.00 in 0.10 in 4.10 in (1895)
Month to date snowfall T 0.8  
Since 1 July snowfall T 1.1  
Since 1 September snowfall T 1.1  
Snow Depth 0.00 in    
Sea Level Pressure  
Sea Level Pressure 30.21 in    
Wind  
Wind Speed 4 mph (SSE)    
Max Wind Speed 10 mph    
Max Gust Speed 12 mph    
Visibility 7 miles    
Events Rain    
T = Trace of Precipitation, MM = Missing Value Source: NWS Daily Summary

Daily Weather History Graph

Daily Weather History Graph

Search for Another Location

Airport or City:

Trip Planner

Search our weather history database for the weather conditions in past years. The results will help you decide how hot, cold, wet, or windy it might be!

Date:

Astronomy

Nov. 19, 2012 Rise Set
Actual Time 6:49 AM CST 4:24 PM CST
Civil Twilight 6:18 AM CST 4:55 PM CST
Nautical Twilight 5:43 AM CST 5:29 PM CST
Astronomical Twilight 5:10 AM CST 6:03 PM CST
Moon 11:48 AM CST (11/19) 10:55 PM CST (11/19)
Length of Visible Light 10h 36m
Length of Day
9h 34m
Waxing Crescent, 41% of the Moon is Illuminated
Nov 19
Waxing Crescent
Nov 20
First Quarter
Nov 28
Full
Dec 6
Last Quarter
Dec 13
New

Hourly Weather History & Observations

Time (CST) Temp. Windchill Dew Point Humidity Pressure Visibility Wind Dir Wind Speed Gust Speed Precip Events Conditions
12:52 AM 45.0 °F 41.2 °F 36.0 °F 71% 30.31 in 9.0 mi South 6.9 mph - N/A   Scattered Clouds
1:52 AM 42.1 °F 38.4 °F 35.1 °F 76% 30.30 in 10.0 mi South 5.8 mph - N/A   Mostly Cloudy
2:52 AM 39.0 °F 36.8 °F 34.0 °F 82% 30.30 in 9.0 mi SSW 3.5 mph - N/A   Scattered Clouds
3:52 AM 37.9 °F 35.5 °F 33.1 °F 83% 30.29 in 8.0 mi SE 3.5 mph - N/A   Mostly Cloudy
4:52 AM 41.0 °F 38.0 °F 35.1 °F 79% 30.29 in 9.0 mi SSE 4.6 mph - N/A   Overcast
5:52 AM 41.0 °F 39.0 °F 34.0 °F 76% 30.28 in 9.0 mi South 3.5 mph - N/A   Overcast
6:52 AM 41.0 °F 37.1 °F 34.0 °F 76% 30.27 in 9.0 mi SSE 5.8 mph - N/A   Overcast
7:52 AM 42.1 °F 37.7 °F 34.0 °F 73% 30.27 in 9.0 mi SSE 6.9 mph - N/A   Overcast
8:52 AM 44.1 °F 42.5 °F 36.0 °F 73% 30.28 in 9.0 mi South 3.5 mph - N/A   Overcast
9:52 AM 46.9 °F - 36.0 °F 66% 30.27 in 8.0 mi Variable 4.6 mph - N/A   Overcast
10:52 AM 48.9 °F - 36.0 °F 61% 30.25 in 9.0 mi South 4.6 mph - N/A   Overcast
11:52 AM 50.0 °F - 37.0 °F 61% 30.22 in 9.0 mi South 6.9 mph - N/A   Mostly Cloudy
12:52 PM 52.0 °F - 36.0 °F 54% 30.19 in 10.0 mi South 6.9 mph - N/A   Mostly Cloudy
1:52 PM 50.0 °F - 41.0 °F 71% 30.17 in 7.0 mi ESE 5.8 mph - N/A   Mostly Cloudy
2:52 PM 50.0 °F - 41.0 °F 71% 30.16 in 6.0 mi SE 6.9 mph - N/A   Haze
3:52 PM 48.9 °F - 41.0 °F 74% 30.16 in 6.0 mi SE 4.6 mph - N/A   Haze
4:52 PM 48.9 °F - 41.0 °F 74% 30.15 in 8.0 mi South 3.5 mph - N/A   Mostly Cloudy
5:52 PM 48.0 °F - 42.1 °F 80% 30.14 in 7.0 mi Calm Calm - N/A   Mostly Cloudy
6:52 PM 48.0 °F - 44.1 °F 86% 30.14 in 6.0 mi Calm Calm - 0.01 in Rain Light Rain
7:52 PM 46.9 °F - 45.0 °F 93% 30.15 in 5.0 mi Calm Calm - 0.00 in   Overcast
8:34 PM 46.4 °F 42.9 °F 44.6 °F 93% 30.13 in 2.5 mi ESE 6.9 mph - 0.06 in Rain Light Rain
8:52 PM 46.9 °F - 45.0 °F 93% 30.14 in 4.0 mi SE 4.6 mph - 0.06 in Rain Light Rain
9:52 PM 48.0 °F - 44.1 °F 86% 30.13 in 5.0 mi Calm Calm - 0.01 in Rain Light Rain
10:52 PM 46.9 °F - 45.0 °F 93% 30.12 in 3.0 mi SE 4.6 mph - 0.00 in   Overcast
11:52 PM 46.9 °F - 45.0 °F 93% 30.10 in 3.0 mi SSE 4.6 mph - 0.00 in   Overcast